Simultaneous Nadir Overpasses (SNOs) Predictions

Prediction of SNOs between GOES-15 and METOP-C Satellite Orbit:

Table of predicted SNOs for the next 14.0 days since TLE Epoch: 12/1/2024
Index Date Time (GOES-15) GOES-15 Lat,Lon METOP-C Lat,Lon Distance(km) Time Diff (sec)
1 12/01/2024 17:42:14 0.16, 61.57 -0.71, 57.68 442.72 80
2 12/02/2024 17:18:55 0.16, 61.57 0.43, 62.67 126.37 80
3 12/04/2024 05:37:48 -0.15, 61.48 0.61, 58.11 384.39 80
4 12/05/2024 05:19:49 -0.15, 61.47 -0.53, 63.10 185.49 80
5 12/06/2024 17:38:48 0.13, 61.54 -0.56, 58.52 344.72 80
6 12/07/2024 17:15:30 0.14, 61.54 0.59, 63.50 224.03 80
7 12/09/2024 05:34:22 -0.13, 61.47 0.43, 58.94 288.09 80
8 12/10/2024 05:16:23 -0.13, 61.46 -0.67, 63.94 281.53 80
9 12/11/2024 17:35:22 0.12, 61.52 -0.39, 59.35 248.17 80
10 12/12/2024 17:12:04 0.13, 61.53 0.78, 64.33 320.04 80
11 12/14/2024 05:30:55 -0.12, 61.48 0.28, 59.78 194.08 80
